Location: Cheadle
(51.0146°N, 113.5417°W)
Time: 03:58:27
(UTC+00:00)

RS-44 - Pass Details

Date: 15 December 2023
Orbit: 1175 x 1510 km, 82.5° (Epoch: 22 February)

Event Time Altitude Azimuth Distance (km) Brightness Sun altitude
Rises 01:50:33 0° 353° (N) 4,122 ? -21.2°
Reaches altitude 10° 01:55:07 10° 19° (NNE) 3,121 ? -21.9°
Enters shadow 01:55:28 11° 21° (NNE) 3,068 ? -21.9°
